Location: ???????
(52.3000°N, 54.4667°E)
Time: 18:01:37
(UTC+00:00)

Timation 2 Rocket - Pass Details

Date: 24 January 2020
Orbit: 904 x 1077 km, 70.0° (Epoch: 27 February)

Event Time Altitude Azimuth Distance (km) Brightness Sun altitude
Rises 13:55:02 0° 215° (SW) 3,565 7.9 -9.4°
Reaches altitude 10° 13:57:30 10° 217° (SW) 2,644 7.2 -9.7°
Maximum altitude 14:03:39 79° 304° (NW) 988 4.1 -10.6°
Drops below altitude 10° 14:10:07 10° 32° (NNE) 2,777 5.9 -11.6°
Enters shadow 14:11:15 - 33° (NNE) 3,192 6.2 -11.7°
